C/2017 F1 ( Lemmon )

Japanese version
Home page
Updated on May 20, 2017

---------------------------------------------------------------------

* Profile

Discovery Date March 20, 2017
Magnitude 21.7 mag
Discoverer G. J. Leonard (Mount Lemmon)

* Orbital Elements

T 2017 Dec. 12.02810 TT                                 MPCW
q   4.4481520            (2000.0)            P               Q
                   Peri.   66.55954     -0.09211073     +0.97508574
                   Node   158.63162     +0.58354733     -0.11135328
e   1.0            Incl.  146.36883     +0.80683835     +0.19185475
From 57 observations 2017 Mar. 20-Apr. 1.

* Magnitudes Graph

        m1 = 10.5 + 5 log d + 10.0 log r

---------------------------------------------------------------------

The orbital elements are published on M.P.E.C. 2017-J52.
The magnitudes graphs are made with Comet for Windows.

---------------------------------------------------------------------

Copyright(C) Seiichi Yoshida (comet@aerith.net). All rights reserved.